When you browse on this site, cookies collect data to enhance your experience and personalize the content and advertising you see.
Visit our Privacy Policy to learn more. By continuing to use the site, you agree to this use of cookies and data.
  • En España
  • Lista de países
  • Para 7 días
  • Temperatura del agua
  • Mapa Satelital
  • El tiempo en el mapa
  • Informadores
  • user-avatar
    Iniciar sesión

    Tiempo cada hora Meshhed

    Hoy, 18 Enero, Viernes

    Tiempo Temperatura Precipitaciones Viento Presión Humedad
    00:00 +6°C° 0.2 mm 7 mps 601 mmHg 53%
    01:00 +6°C° 0.2 mm 9 mps 600 mmHg 54%
    02:00 +3°C° 0 mm 9 mps 601 mmHg 54%
    03:00 +2°C° 0 mm 9 mps 601 mmHg 53%
    04:00 0°C° 0 mm 9 mps 602 mmHg 51%
    05:00 -1°C° 0 mm 8 mps 602 mmHg 56%
    06:00 -2°C° 0 mm 8 mps 603 mmHg 60%
    07:00 -3°C° 0 mm 7 mps 603 mmHg 65%
    08:00 -3°C° 0.1 mm 7 mps 604 mmHg 64%
    09:00 -3°C° 0.1 mm 7 mps 605 mmHg 62%
    10:00 -2°C° 0 mm 6 mps 605 mmHg 60%
    11:00 -2°C° 0 mm 6 mps 606 mmHg 56%
    12:00 0°C° 0 mm 5 mps 606 mmHg 53%
    13:00 0°C° 0 mm 5 mps 607 mmHg 49%
    14:00 0°C° 0 mm 4 mps 606 mmHg 51%
    15:00 -1°C° 0 mm 4 mps 606 mmHg 53%
    16:00 -1°C° 0 mm 4 mps 606 mmHg 55%
    17:00 0°C° 0.1 mm 3 mps 607 mmHg 57%
    18:00 -1°C° 0.1 mm 3 mps 607 mmHg 59%
    19:00 -2°C° 0.1 mm 2 mps 607 mmHg 61%
    20:00 -2°C° 0 mm 2 mps 608 mmHg 63%
    21:00 -2°C° 0 mm 2 mps 608 mmHg 65%
    22:00 -3°C° 0 mm 2 mps 608 mmHg 66%
    23:00 -3°C° 0 mm 2 mps 608 mmHg 67%

    Mañana, 19 Enero, Sábado

    Tiempo Temperatura Precipitaciones Viento Presión Humedad
    00:00 -4°C° 0 mm 2 mps 608 mmHg 68%
    01:00 -4°C° 0 mm 2 mps 608 mmHg 69%
    02:00 -5°C° 0 mm 2 mps 607 mmHg 67%
    03:00 -5°C° 0 mm 2 mps 607 mmHg 65%
    04:00 -5°C° 0 mm 2 mps 607 mmHg 63%
    05:00 -6°C° 0 mm 2 mps 607 mmHg 60%
    06:00 -6°C° 0 mm 2 mps 607 mmHg 57%
    07:00 -6°C° 0 mm 2 mps 608 mmHg 55%
    08:00 -5°C° 0 mm 2 mps 608 mmHg 49%
    09:00 -4°C° 0 mm 2 mps 608 mmHg 44%
    10:00 -4°C° 0 mm 2 mps 609 mmHg 38%
    11:00 -4°C° 0 mm 3 mps 609 mmHg 37%
    12:00 -2°C° 0 mm 3 mps 609 mmHg 36%
    13:00 -2°C° 0 mm 3 mps 608 mmHg 34%
    14:00 -2°C° 0 mm 3 mps 608 mmHg 36%
    15:00 -2°C° 0 mm 3 mps 608 mmHg 37%
    16:00 -2°C° 0 mm 3 mps 608 mmHg 38%
    17:00 -4°C° 0 mm 3 mps 608 mmHg 41%
    18:00 -5°C° 0 mm 3 mps 608 mmHg 44%
    19:00 -6°C° 0 mm 3 mps 608 mmHg 47%
    20:00 -6°C° 0 mm 3 mps 608 mmHg 49%
    21:00 -7°C° 0 mm 3 mps 608 mmHg 51%
    22:00 -7°C° 0 mm 3 mps 608 mmHg 53%
    23:00 -7°C° 0 mm 3 mps 608 mmHg 55%

    Pasado mañana, 20 Enero, Domingo

    Tiempo Temperatura Precipitaciones Viento Presión Humedad
    00:00 -8°C° 0 mm 3 mps 608 mmHg 56%
    01:00 -8°C° 0 mm 3 mps 608 mmHg 57%
    02:00 -8°C° 0 mm 3 mps 608 mmHg 59%
    03:00 -8°C° 0 mm 3 mps 608 mmHg 60%
    04:00 -8°C° 0 mm 3 mps 608 mmHg 61%
    05:00 -8°C° 0 mm 3 mps 609 mmHg 61%
    06:00 -7°C° 0 mm 2 mps 609 mmHg 62%
    07:00 -7°C° 0 mm 2 mps 610 mmHg 63%
    08:00 -7°C° 0 mm 2 mps 610 mmHg 60%
    09:00 -6°C° 0 mm 2 mps 611 mmHg 57%
    10:00 -5°C° 0 mm 2 mps 612 mmHg 54%
    11:00 -5°C° 0 mm 2 mps 612 mmHg 53%
    12:00 -4°C° 0 mm 2 mps 612 mmHg 51%
    13:00 -3°C° 0 mm 2 mps 612 mmHg 50%
    14:00 -3°C° 0 mm 2 mps 612 mmHg 50%
    15:00 -3°C° 0 mm 2 mps 612 mmHg 50%
    16:00 -1°C° 0 mm 1 mps 612 mmHg 50%
    17:00 -1°C° 0 mm 1 mps 612 mmHg 52%
    18:00 -2°C° 0 mm 1 mps 612 mmHg 54%
    19:00 -2°C° 0 mm 1 mps 613 mmHg 56%
    20:00 -3°C° 0 mm 1 mps 613 mmHg 59%
    21:00 -5°C° 0 mm 2 mps 613 mmHg 62%
    22:00 -5°C° 0 mm 2 mps 613 mmHg 65%
    23:00 -6°C° 0 mm 2 mps 612 mmHg 70%

    21 Enero, Lunes

    Tiempo Temperatura Precipitaciones Viento Presión Humedad
    00:00 -4°C° 0 mm 1 mps 612 mmHg 74%
    01:00 -4°C° 0 mm 1 mps 612 mmHg 79%
    02:00 -4°C° 0 mm 1 mps 612 mmHg 80%
    03:00 -4°C° 0 mm 1 mps 612 mmHg 82%
    04:00 -4°C° 0 mm 1 mps 612 mmHg 83%
    05:00 -4°C° 0 mm 1 mps 612 mmHg 83%
    06:00 -4°C° 0 mm 1 mps 612 mmHg 83%
    07:00 -6°C° 0 mm 1 mps 612 mmHg 84%
    08:00 -4°C° 0 mm 1 mps 613 mmHg 78%
    09:00 -3°C° 0 mm 1 mps 613 mmHg 72%
    10:00 -3°C° 0 mm 1 mps 613 mmHg 66%
    11:00 -2°C° 0 mm 1 mps 613 mmHg 61%
    12:00 -2°C° 0 mm 1 mps 613 mmHg 55%
    13:00 -1°C° 0 mm 1 mps 612 mmHg 50%
    14:00 -1°C° 0 mm 1 mps 612 mmHg 49%
    15:00 -1°C° 0 mm 1 mps 612 mmHg 48%
    16:00 -1°C° 0 mm 1 mps 611 mmHg 47%
    17:00 -1°C° 0 mm 1 mps 611 mmHg 51%
    18:00 -4°C° 0 mm 2 mps 611 mmHg 54%
    19:00 -4°C° 0 mm 2 mps 611 mmHg 58%
    20:00 -5°C° 0 mm 2 mps 611 mmHg 61%
    21:00 -5°C° 0 mm 2 mps 611 mmHg 63%
    22:00 -3°C° 0 mm 1 mps 610 mmHg 65%
    23:00 -3°C° 0 mm 1 mps 610 mmHg 66%

    22 Enero, Martes

    Tiempo Temperatura Precipitaciones Viento Presión Humedad
    00:00 -4°C° 0 mm 1 mps 610 mmHg 67%
    01:00 -5°C° 0 mm 0 mps 609 mmHg 68%
    02:00 -5°C° 0 mm 0 mps 609 mmHg 67%
    03:00 -5°C° 0 mm 0 mps 608 mmHg 66%
    04:00 -4°C° 0 mm 1 mps 608 mmHg 66%
    05:00 -4°C° 0 mm 1 mps 608 mmHg 65%
    06:00 -4°C° 0 mm 1 mps 608 mmHg 64%
    07:00 -4°C° 0 mm 1 mps 608 mmHg 64%
    08:00 -3°C° 0 mm 1 mps 608 mmHg 58%
    09:00 -3°C° 0 mm 2 mps 608 mmHg 53%
    10:00 -2°C° 0 mm 2 mps 609 mmHg 47%
    11:00 -2°C° 0 mm 2 mps 609 mmHg 43%
    12:00 -1°C° 0 mm 3 mps 608 mmHg 39%
    13:00 0°C° 0 mm 3 mps 608 mmHg 35%
    14:00 0°C° 0 mm 3 mps 608 mmHg 37%
    15:00 -1°C° 0 mm 3 mps 608 mmHg 39%
    16:00 -1°C° 0 mm 3 mps 608 mmHg 40%
    17:00 -2°C° 0 mm 3 mps 608 mmHg 44%
    18:00 -2°C° 0 mm 3 mps 608 mmHg 49%
    19:00 -3°C° 0 mm 2 mps 608 mmHg 53%
    20:00 -3°C° 0 mm 2 mps 608 mmHg 55%
    21:00 -3°C° 0 mm 2 mps 608 mmHg 57%
    22:00 -4°C° 0 mm 2 mps 608 mmHg 59%
    23:00 -4°C° 0 mm 2 mps 608 mmHg 59%

    23 Enero, Miércoles

    Tiempo Temperatura Precipitaciones Viento Presión Humedad
    00:00 -4°C° 0 mm 2 mps 608 mmHg 60%
    01:00 -4°C° 0 mm 2 mps 608 mmHg 61%
    02:00 -4°C° 0 mm 2 mps 608 mmHg 61%
    03:00 -4°C° 0 mm 2 mps 608 mmHg 61%
    04:00 -2°C° 0 mm 1 mps 608 mmHg 61%
    05:00 -3°C° 0 mm 1 mps 608 mmHg 62%
    06:00 -3°C° 0 mm 1 mps 609 mmHg 62%
    07:00 -3°C° 0 mm 1 mps 609 mmHg 63%
    08:00 -2°C° 0 mm 1 mps 610 mmHg 58%
    09:00 -1°C° 0 mm 1 mps 610 mmHg 53%
    10:00 -1°C° 0 mm 1 mps 611 mmHg 49%
    11:00 0°C° 0 mm 1 mps 611 mmHg 45%
    12:00 +1°C° 0 mm 1 mps 611 mmHg 42%
    13:00 +1°C° 0 mm 1 mps 611 mmHg 38%
    14:00 +1°C° 0 mm 2 mps 611 mmHg 38%
    15:00 +1°C° 0 mm 2 mps 611 mmHg 37%
    16:00 +1°C° 0 mm 2 mps 610 mmHg 37%
    17:00 +1°C° 0 mm 1 mps 610 mmHg 39%
    18:00 0°C° 0 mm 1 mps 610 mmHg 42%
    19:00 -1°C° 0 mm 1 mps 610 mmHg 45%
    20:00 -1°C° 0 mm 1 mps 610 mmHg 45%
    21:00 -1°C° 0 mm 1 mps 610 mmHg 46%
    22:00 -3°C° 0 mm 0 mps 610 mmHg 46%
    23:00 -3°C° 0 mm 0 mps 610 mmHg 46%
    Mostrar más